Vertical_Velocity
1 1 1 -1 -0 -1 -1 -2 -2 -2 2 3 4 2 3 1 -3 0 -17 12 -1 0 7 13 -1 6 9 3 8 8 10 -6 -10 0 -18 6 -0 -12 10 -16 5 -12 -3 11 15
3 1 -0 2 3 0 1 -2 -4 -1 2 4 7 1 -1 2 -7 -23 21 9 10 24 1 8 -4 6 -4 3 -5 -5 -1 -12 -7 -5 -5 12 1 11 -5 -6 -11 -8 -1 -7 -8
2 1 -1 2 0 -1 4 3 5 4 5 -1 -1 3 4 1 -12 2 26 12 11 18 7 13 24 25 8 9 -5 -14 -13 -19 -2 -5 3 3 6 6 -8 -11 -5 -10 -0 -0 -4
1 -2 -3 -4 -5 -5 -9 -7 -1 2 6 4 3 -2 3 6 -32 5 -4 6 3 18 18 10 8 -0 8 -2 -2 -0 -2 -24 7 14 -1 -11 11 7 -12 6 -11 4 -6 -15 8
0 -2 -3 -6 -6 -5 -4 -5 -4 -1 -2 4 3 -2 5 -19 -10 32 6 4 6 13 -5 4 2 6 -6 -2 13 -2 5 -15 10 3 -1 17 -7 -16 -13 15 -21 6 4 -7 -6
-4 -5 -6 -6 -5 -4 -3 -2 -4 -1 -3 0 0 1 -2 -36 14 10 8 9 18 7 2 8 -4 4 9 -8 -8 4 -3 -5 -0 -1 6 -1 5 16 -7 2 -1 -21 -7 8 2
-1 -2 -1 -1 -4 -5 -1 -2 -5 -3 -2 3 -3 -1 1 -9 10 13 5 9 3 12 7 15 10 5 28 14 8 10 5 14 0 14 -14 24 -9 -15 6 -0 3 2 6 -21 -8
-5 -3 -3 -5 -6 -2 -2 -4 -6 -4 2 -4 -1 -3 -3 1 4 5 -4 -2 16 14 1 7 13 17 11 19 -0 -4 18 8 8 15 8 6 -58 13 -2 2 -4 4 4 -11 -17
-5 -6 -2 -2 -4 -4 -3 -5 -5 -4 4 -3 3 2 10 -1 18 25 12 -14 8 8 -12 19 19 -2 24 4 12 7 -6 -2 -5 3 15 -4 -4 -3 -4 1 -6 0 2 -10 -22
1 -3 -0 -4 -2 -4 -4 -6 -5 5 -7 -5 -5 -2 5 -2 -8 3 22 7 6 13 6 5 5 6 14 18 -37 -16 7 7 -14 -0 7 5 -8 2 2 -1 -9 9 -1 -5 -3
1 -1 -2 -1 -4 -4 -8 -12 -23 -49 12 -4 -1 -4 -1 2 4 7 3 -11 2 6 8 9 17 -13 -18 -3 5 15 10 -8 -1 0 13 2 -8 -13 7 9 -4 3 -4 -5 -4
-4 -3 -6 -4 -5 -1 -5 -4 6 3 -20 2 1 1 -10 -8 -16 20 -0 -2 -4 1 -7 26 -20 -12 14 8 2 10 6 -0 1 13 15 11 -3 -4 5 -24 -5 2 6 -1 12
-2 -2 -4 -1 -2 2 0 2 -2 4 -1 -1 -3 -6 -13 1 -2 2 -1 -0 17 -5 5 -4 -21 4 19 6 5 2 -7 -4 -5 1 1 6 2 -13 -11 -4 0 -7 -1 2 -3
-3 -3 -2 -1 -5 -0 0 3 -0 0 -1 -7 -26 1 -10 -4 1 9 0 -10 1 4 -3 -0 -1 12 -6 2 9 10 11 6 5 2 -4 -7 -13 0 3 -12 -10 -4 -4 9 3
-3 -3 -4 -3 -2 -3 -7 -1 -2 1 0 -14 -8 4 0 3 9 -7 5 -4 21 12 26 -18 1 -5 9 -23 12 -19 6 -3 6 2 14 3 14 -35 7 -4 -22 3 6 -3 -1
-4 -5 -7 -4 7 -4 -2 -1 -7 -0 -0 -6 -2 -17 -9 -0 0 6 -9 -3 -4 -5 -0 -2 17 8 -18 -7 3 8 10 7 8 8 13 -23 10 -20 -16 -5 14 -1 -2 -0 -3
-7 -3 -4 -6 -23 -13 -4 -6 1 -5 -4 -10 -25 -12 2 -15 -6 -5 -8 -15 -12 -11 -2 9 -12 9 -2 22 3 15 12 5 12 12 -23 -4 24 -47 6 -8 -0 -2 -2 2 4
-2 -3 -2 -12 -7 -6 -5 -4 -15 4 1 11 -2 -2 -4 -8 -6 -3 -3 1 -5 -5 4 1 18 4 -15 11 -21 -18 -23 -17 -8 -5 -12 2 -5 -37 -8 -12 -15 1 5 3 -1
-2 -0 -1 -7 -7 -2 -9 -25 0 -1 -1 -5 -4 -7 -8 -3 6 -5 0 1 4 -4 -1 2 1 -9 24 9 5 -6 20 -44 3 4 9 -11 -15 -3 6 -4 -5 -8 -15 -2 7
-6 -5 -10 -3 -4 1 -12 -3 1 2 -2 6 8 4 -0 -8 -7 -2 -0 4 3 6 1 -1 -3 2 4 2 20 -32 -21 18 8 6 2 -3 -3 -8 3 4 11 5 2 1 -4
-2 -5 4 -4 5 -11 -10 3 -3 4 -4 -2 -1 -2 1 1 6 -2 -3 -0 0 -4 5 1 4 -6 -0 1 -13 6 16 7 6 3 -4 -1 -16 -15 -1 7 -2 3 2 2 -0
-9 -9 -1 -5 -9 -9 -4 0 3 -0 7 3 0 7 10 -0 -8 1 1 13 -0 3 -2 -3 0 -2 -9 7 10 11 -8 -9 5 -4 -5 5 1 17 -1 5 3 -0 8 0 -3
-5 -13 -1 -15 -27 -20 8 7 -1 -5 -2 -4 -0 3 6 1 10 4 1 -0 9 0 -3 1 2 -2 8 9 5 14 40 22 -2 12 -9 2 7 1 7 -3 3 7 7 -0 1
-14 -10 -12 -2 0 -2 -11 -3 -8 4 4 5 2 3 1 6 6 -9 -2 -10 1 4 1 3 2 1 5 12 3 -5 -8 -2 5 17 -15 -16 -2 0 -0 -2 -5 -5 -1 3 4
-8 -2 4 -17 -2 0 -1 1 -2 -17 3 -2 -3 18 8 -8 -7 -6 2 -4 0 2 1 0 -3 1 8 17 3 3 -2 5 1 5 14 12 15 -6 3 -0 2 2 0 -0 0
-3 -4 -1 -4 1 -1 -1 -2 -2 1 1 1 1 6 5 6 16 -15 0 3 7 -5 -2 -0 -1 -4 2 7 -0 -5 9 9 5 1 -4 2 3 -5 -4 2 3 -2 3 3 3
1 5 -2 8 1 -4 -1 -6 -5 -2 7 3 -1 -4 1 5 2 0 0 0 1 3 -7 -1 3 -1 5 -1 -3 -13 -6 2 4 4 2 1 -3 -1 -2 -7 -3 3 -1 2 11
Height
3080 3074 3068 3063 3058 3053 3049 3045 3042 3039 3035 3032 3032 3031 3030 3028 3027 3025 3018 3034 3037 3045 3047 3049 3050 3055 3056 3055 3059 3063 3060 3052 3054 3063 3061 3070 3071 3072 3075 3072 3074 3073 3075 3083 3088
3073 3068 3062 3057 3052 3046 3041 3035 3030 3025 3022 3020 3018 3016 3013 3012 3012 3006 3019 3022 3028 3036 3035 3038 3040 3044 3044 3046 3047 3047 3045 3044 3055 3057 3061 3066 3068 3070 3070 3069 3070 3070 3069 3079 3082
3065 3060 3054 3048 3042 3038 3031 3024 3019 3013 3010 3004 3000 2997 2997 2997 2995 2990 3011 3009 3017 3024 3026 3029 3035 3034 3033 3036 3034 3035 3029 3045 3047 3054 3057 3061 3065 3069 3068 3063 3067 3067 3066 3075 3080
3061 3055 3050 3044 3038 3032 3026 3019 3010 3001 2993 2992 2988 2984 2981 2980 2982 2979 2984 2990 2996 3006 3011 3014 3017 3017 3019 3017 3025 3025 3027 3036 3041 3049 3052 3054 3060 3060 3059 3062 3064 3068 3070 3070 3075
3058 3052 3045 3037 3031 3026 3018 3010 3002 2994 2986 2977 2974 2968 2964 2961 2957 2972 2975 2974 2981 2984 2991 2995 3000 3006 3004 3012 3020 3013 3022 3027 3035 3039 3043 3049 3048 3053 3055 3061 3062 3064 3066 3071 3070
3055 3047 3039 3031 3024 3016 3009 3000 2994 2985 2977 2970 2963 2959 2953 2938 2948 2954 2968 2968 2968 2966 2974 2979 2983 2994 3001 3003 3006 3010 3017 3021 3027 3029 3033 3038 3040 3045 3048 3055 3057 3059 3062 3065 3066
3049 3042 3034 3024 3015 3007 2999 2991 2986 2977 2969 2962 2955 2949 2940 2935 2939 2941 2950 2955 2958 2956 2959 2967 2976 2983 2991 2996 3002 3006 3010 3013 3015 3021 3023 3030 3029 3025 3040 3046 3051 3054 3058 3059 3062
3044 3037 3029 3019 3010 3002 2994 2986 2979 2969 2962 2952 2946 2938 2930 2930 2925 2925 2927 2930 2941 2944 2949 2956 2965 2972 2979 2987 2993 2997 3004 2997 3000 3013 3017 3022 3003 3026 3033 3038 3044 3048 3052 3057 3057
3038 3031 3023 3014 3004 2994 2986 2978 2973 2963 2954 2944 2940 2931 2929 2925 2918 2917 2917 2923 2928 2929 2936 2944 2955 2956 2970 2971 2982 2983 2972 2983 2996 3001 3009 3007 2999 3017 3025 3029 3035 3040 3045 3051 3053
3033 3027 3019 3010 2999 2989 2980 2972 2968 2959 2950 2943 2939 2934 2929 2920 2917 2915 2911 2913 2915 2920 2928 2932 2940 2944 2948 2955 2944 2954 2967 2977 2981 2995 2997 2996 2996 3011 3016 3019 3025 3031 3037 3042 3045
3030 3024 3016 3007 2996 2984 2973 2964 2957 2954 2948 2942 2938 2932 2926 2920 2915 2911 2907 2907 2910 2913 2918 2923 2928 2920 2925 2930 2951 2960 2965 2969 2980 2988 2990 2986 2998 2998 3008 3011 3017 3022 3027 3032 3035
3027 3019 3011 3002 2992 2981 2971 2962 2955 2952 2947 2943 2937 2931 2926 2918 2912 2911 2906 2906 2905 2907 2912 2918 2910 2921 2934 2940 2943 2948 2955 2959 2975 2981 2981 2986 2987 2990 2996 3000 3008 3013 3016 3021 3028
3024 3015 3004 2996 2988 2979 2968 2960 2955 2950 2947 2942 2937 2930 2924 2918 2913 2908 2903 2900 2897 2900 2903 2906 2910 2919 2924 2931 2934 2934 2939 2959 2965 2972 2975 2979 2982 2985 2985 2989 2997 3000 3006 3010 3016
3022 3011 3001 2992 2985 2974 2965 2958 2952 2948 2944 2944 2936 2932 2923 2915 2912 2909 2902 2896 2892 2893 2897 2897 2903 2909 2915 2917 2927 2928 2942 2956 2960 2965 2967 2973 2964 2971 2975 2977 2984 2989 2993 2998 3004
3019 3009 3000 2989 2981 2971 2962 2956 2950 2947 2946 2946 2938 2932 2927 2923 2915 2906 2898 2891 2890 2887 2891 2889 2894 2899 2902 2906 2923 2928 2942 2948 2956 2960 2965 2966 2969 2953 2967 2966 2968 2976 2982 2986 2994
3015 3006 2996 2990 2981 2970 2962 2955 2951 2951 2949 2946 2942 2932 2925 2919 2914 2907 2898 2894 2884 2878 2881 2885 2891 2895 2897 2909 2916 2932 2938 2945 2953 2960 2959 2950 2955 2950 2951 2948 2964 2968 2971 2978 2985
3014 3005 2994 2986 2975 2968 2962 2956 2956 2956 2957 2949 2938 2932 2929 2920 2913 2907 2901 2894 2890 2883 2880 2881 2884 2886 2891 2901 2909 2921 2930 2940 2951 2955 2925 2939 2952 2930 2941 2950 2954 2957 2962 2967 2974
3011 3004 2995 2986 2976 2969 2965 2961 2958 2962 2955 2948 2942 2935 2931 2922 2914 2909 2906 2901 2896 2892 2886 2883 2884 2884 2885 2890 2892 2901 2908 2913 2922 2925 2905 2933 2926 2928 2933 2941 2946 2947 2952 2957 2960
3011 3004 2996 2985 2977 2970 2965 2962 2965 2961 2957 2948 2940 2936 2932 2928 2921 2912 2907 2903 2900 2895 2895 2887 2880 2878 2883 2886 2894 2900 2907 2915 2919 2915 2921 2924 2925 2927 2928 2933 2938 2941 2947 2950 2955
3010 3002 2994 2986 2979 2972 2966 2965 2966 2961 2956 2950 2945 2939 2932 2925 2920 2914 2908 2905 2902 2899 2897 2893 2885 2878 2880 2884 2890 2895 2900 2911 2910 2910 2918 2911 2917 2920 2925 2927 2929 2932 2935 2940 2945
3010 3001 2994 2986 2979 2972 2966 2966 2964 2961 2955 2951 2945 2940 2934 2928 2923 2916 2911 2907 2901 2896 2895 2891 2889 2880 2879 2881 2885 2891 2898 2903 2905 2906 2906 2906 2910 2920 2925 2925 2924 2923 2927 2931 2935
3007 2999 2993 2985 2980 2974 2971 2968 2964 2960 2955 2949 2945 2941 2935 2928 2920 2916 2912 2908 2902 2896 2890 2889 2886 2882 2874 2878 2882 2890 2892 2898 2900 2901 2903 2909 2914 2913 2917 2920 2922 2921 2923 2924 2927
3003 2998 2994 2985 2978 2977 2975 2970 2965 2959 2954 2949 2945 2941 2934 2928 2921 2916 2911 2904 2898 2894 2891 2890 2889 2882 2871 2880 2884 2886 2892 2895 2897 2904 2902 2909 2909 2911 2912 2916 2917 2919 2919 2921 2923
3007 2996 2990 2988 2983 2979 2974 2970 2964 2960 2956 2950 2944 2939 2933 2925 2923 2915 2909 2903 2898 2896 2894 2892 2890 2888 2885 2888 2892 2890 2885 2887 2892 2897 2900 2903 2908 2905 2909 2911 2913 2915 2915 2917 2919
3006 3004 2996 2989 2985 2980 2976 2969 2965 2958 2956 2950 2944 2941 2935 2925 2917 2917 2911 2905 2902 2898 2894 2892 2889 2886 2882 2887 2889 2888 2887 2887 2888 2892 2894 2900 2903 2902 2902 2906 2907 2908 2910 2912 2913
3006 3002 2997 2990 2985 2981 2976 2972 2966 2962 2957 2951 2946 2940 2935 2930 2927 2918 2915 2911 2907 2900 2895 2893 2892 2890 2884 2880 2884 2885 2882 2880 2883 2887 2891 2895 2895 2898 2900 2899 2900 2904 2905 2907 2908
3009 3001 2996 2991 2985 2980 2978 2972 2967 2963 2959 2953 2946 2939 2934 2931 2925 2922 2918 2914 2910 2906 2899 2895 2893 2891 2890 2887 2884 2884 2891 2892 2892 2891 2892 2891 2891 2893 2895 2896 2896 2898 2900 2902 2903